Hourly Data Report for January 25, 2013

BAGOTVILLE A
QUEBEC

48°20'00.000" N
71°00'00.000" W
159.10 m
7060400
71727
YBG

Download Data

Hourly Data (January 2013)
Hourly Data Report for January 25, 2013
TIME
LST
Temp Definition
°C
Dew Point Definition
°C
Rel Hum Definition
%
Precip. Amount Definition
mm

Wind Dir Definition
10's deg

Wind Spd Definition
km/h
Visibility Definition
km
Stn Press Definition
kPa
Hmdx Definition


Wind Chill Definition


Weather Definition


00:00 -21.8 -27.0 63   30 24 9.7 100.02   -34 Snow
01:00 -21.6 -25.8 69   31 20 9.7 100.00   -32 Snow
02:00 -21.4 -25.5 69   30 26 9.7 100.08   -34 Snow
03:00 -21.6 -26.8 63   30 33 9.7 100.16   -35 Snow
04:00 -21.8 -27.0 63   30 30 6.4 100.19   -35 Snow
05:00 -21.8 -27.0 63   30 26 6.4 100.22   -34 Snow
06:00 -21.8 -26.0 69   30 26 9.7 100.25   -34 Snow
07:00 -21.6 -24.8 75   30 26 6.4 100.23   -34 Snow
08:00 -21.4 -23.8 81   30 17 9.7 100.22   -31 Snow
09:00 -21.0 -24.2 75   30 19 6.4 100.21   -31 Snow
10:00 -20.0 -23.0 77   31 17 4.8 100.21   -30 Snow
11:00 -18.7 -22.2 74   29 26 4.8 100.17   -30 Snow
12:00 -18.3 -21.8 74   31 24 3.2 100.11   -29 Snow
13:00 -17.5 -21.5 71   31 24 24.1 100.05   -28 Mostly Cloudy
14:00 -16.5 -22.4 60   31 22 40.2 100.00   -27 Mostly Cloudy
15:00 -15.9 -23.2 53   31 22 40.2 99.97   -26 Mostly Cloudy
16:00 -17.1 -21.0 72   29 11 40.2 99.97   -24 Mostly Cloudy
17:00 -18.7 -23.0 69   29 13 40.2 99.97   -27 Mostly Cloudy
18:00 -19.7 -24.3 67   27 15 40.2 99.96   -29 Mostly Cloudy
19:00 -20.2 -25.9 60   27 11 40.2 99.95   -28 Mostly Cloudy
20:00 -20.0 -24.7 66   26 15 40.2 99.93   -29 Mostly Cloudy
21:00 -18.2 -24.0 60   31 15 40.2 99.91   -27 Cloudy
22:00 -18.6 -23.7 64   27 11 24.1 99.91   -26 Snow Showers
23:00 -18.4 -22.6 70   28 7 24.1 99.91   -24 Snow Showers

Notes on Data Quality.

Legend

  • E = Estimated
  • M = Missing
  • NA = Not Available*
  • [empty] = Indicates an unobserved value
Date modified: